Flag for Russia Weather past 2 weeks in Barnaul, Russia

Now
72 °F

Partly cloudy.


Feels Like: 77 °F
Forecast: 61 / 80 °F
Wind: 8 mph from Southeast

Location: Barnaul Airport

Current Time: Jul 23, 2014 at 11:30:07 PM

Latest Report: Jul 23, 2014 at 11:00 PM


Visibility: N/A

Pressure: 29.47 "Hg

Humidity: 47%

Dew point: 50 °F

Location of BarnaulLocation

Historic Weather in Barnaul — Graph

°F

Barnaul temperature yesterday

Maximum temperature yesterday: 86 °F (at 3:00 PM)
Minimum temperature yesterday: 68 °F (at 5:30 AM)
Average temperature yesterday: 78 °F

Past Weeks' High & Low Weather Summary

 TemperatureHumidityPressure
High99 °F (Jul 12, 5:00 PM)94% (Jul 13, 7:30 PM)29.86 "Hg (Jul 13, 7:30 PM)
Low55 °F (Jul 15, 5:00 AM)13% (Jul 12, 7:00 PM)29.47 "Hg (Jul 12, 6:00 PM)
Average72 °F55%29.69 "Hg
* Reported Jul 8 10:00 PM — Jul 23 10:30 PM, Barnaul, Weather by CustomWeather, © 2014

Note: Actual official high and low records may vary slightly from our data, if they occured in-between our weather recording intervals... More about our weather records

Advertising

Barnaul weather history for previous 24 hours

 ConditionsComfort  
Time TempWeatherWind HumidityBarometerVisibility
10:30 PM
Jul 23
73 °FBroken clouds.8 mph44%29.47 "HgN/A
10:00 PM73 °FPartly sunny.8 mph44%29.47 "HgN/A
9:30 PM75 °FBroken clouds.8 mph41%29.47 "HgN/A
9:00 PM75 °FBroken clouds.8 mph41%29.50 "HgN/A
8:30 PM77 °FBroken clouds.8 mph39%29.50 "HgN/A
8:00 PM79 °FBroken clouds.10 mph32%29.50 "HgN/A
5:00 PM81 °FScattered clouds.10 mph32%29.56 "HgN/A
4:30 PM81 °FScattered clouds.8 mph26%29.56 "HgN/A
4:00 PM81 °FScattered clouds.10 mph28%29.56 "HgN/A
3:30 PM82 °FScattered clouds.10 mph26%29.56 "Hg6 mi
12:30 PM77 °FScattered clouds.10 mph39%29.62 "HgN/A
12:00 PM77 °FScattered clouds.10 mph39%29.62 "HgN/A
11:30 AM75 °FPassing clouds.8 mph50%29.62 "HgN/A
11:00 AM75 °FSunny.8 mph57%29.62 "Hg10 mi
10:30 AM72 °FBroken clouds.6 mph69%29.62 "HgN/A
9:30 AM66 °FBroken clouds.6 mph83%29.62 "HgN/A
9:00 AM66 °FBroken clouds.3 mph88%29.62 "HgN/A
8:30 AM64 °FPartly sunny.6 mph88%29.65 "HgN/A
8:00 AM64 °FPartly sunny.6 mph88%29.65 "HgN/A
7:30 AM64 °FPartly sunny.3 mph88%29.62 "HgN/A
7:00 AM63 °FPartly sunny.3 mph94%29.59 "HgN/A
6:00 AM63 °FPassing clouds.8 mph94%29.62 "HgN/A
11:30 PM
Jul 22
72 °FThundershowers. Passing clouds.8 mph69%29.59 "HgN/A
11:00 PM73 °FThundershowers. Partly cloudy.8 mph65%29.59 "HgN/A
Weather by CustomWeather, © 2014

See weather overviewHow to use our weather pages